www.pogodaiklimat.ru

Погода и климат >> Архив погоды >> Россия >> Краснодарский край >> Джубга


ПОГОДА в Джубге

  • Прогноз погоды в Джубге
  • Монитор погоды в Джубге

АРХИВ ПОГОДЫ в Джубге

Время (UTC), дата Ветер
(напр.,м/с)
 
Видим.   Явления Облачность Т
(С)
Тd
(С)
f
(%)
Тe
(С)
Тes
(С)
Комфортность P
(гПа)
Po
(гПа)
Тmin
(С)
Tmax
(С)
R
(мм)
R24
(мм)
S
(см)
09 16.07 штиль 0 10 км {ливн. осадки} 10/10 600 м
[Cb cap]
+23.2 +17.3 69 +28 +28 душно 1007.1 1004.7
12 16.07 штиль 0 10 км {ливн. осадки} 6/3 600 м
[Cb cap Ci sp]
+26.2 +17.6 59 +30 +42 душно 1008.5 1006.1
15 16.07 штиль 0 10 км 8/5 600 м
[Cb cap Cs]
+24.3 +16.6 62 +28 +29 душно 1009.4 1007.0 +26.8 10
18 16.07 Ю 1 10 км 4/4 600 м
[Cb cap]
+21.7 +16.5 72 +26 +26 душно 1010.4 1007.9
21 16.07 С 1 10 км ясно +18.8 +16.2 85 +21 +21 комфорт 1010.2 1007.7
00 17.07 С 1 10 км ясно +16.3 +14.8 91 +17 +17 1009.5 1007.0
03 17.07 С 2 10 км туман на расстоянии ясно +15.6 +14.2 91 +15 +16 1009.1 1006.6 +15.4
06 17.07 СВ 1 10 км ясно +23.1 +16.8 68 +28 +40 душно 1008.1 1005.7
09 17.07 С 1 10 км 3/3 1000 м
[Cu med, cong]
+26.4 +18.0 60 +31 +46 душно 1007.1 1004.7
12 17.07 СЗ 2 10 км 8/3 600 м
[Cb cap Cc]
+27.3 +17.5 55 +31 +39 душно 1006.4 1004.0
15 17.07 СВ 2 10 км 3/0
[Ci fib]
+28.9 +14.2 41 +31 +33 жарко 1005.4 1003.0 +29.9
18 17.07 СВ 2 10 км ясно +23.8 +13.0 51 +26 +26 жарко 1005.2 1002.8
21 17.07 СВ 2 10 км ясно +22.9 +14.9 61 +27 +27 душно 1005.2 1002.7
00 18.07 штиль 0 н/о н/о +21.2 +13.3 61 +24 +24 комфорт 1005.7 1003.3
03 18.07 СВ 2 10 км 10/6 600 м
[Cb cap Ac As]
+21.8 +13.7 60 +25 +25 комфорт 1004.8 1002.4 +21.1
06 18.07 С 3
{11}
10 км 6/1 600 м
[Cb cap Cs]
+23.4 +15.5 61 +28 +34 душно 1005.3 1002.9
09 18.07 ЮВ 1 10 км 9/0
[Ac As]
+25.8 +18.2 63 +30 +38 душно 1006.7 1004.3
12 18.07 штиль 0 10 км 9/5 600 м
[Cb cap Cs]
+27.1 +18.9 61 +32 +40 очень
душно
1006.8 1004.4
15 18.07 С 1 10 км 8/5 600 м
[Cu med, cong Cs]
+26.0 +17.5 59 +30 +31 душно 1007.7 1005.3 +28.2
18 18.07 штиль 0 10 км 6/0
[Cs]
+22.6 +16.9 70 +27 +27 душно 1009.2 1006.8
21 18.07 С 3 10 км ясно +21.6 +16.7 74 +26 +26 душно 1010.2 1007.8
00 19.07 С 2 10 км ясно +21.2 +17.3 78 +25 +25 комфорт 1011.0 1008.6
03 19.07 С 3 10 км 10/8 600 м
[Cb cap Ac As]
+21.0 +17.4 80 +25 +25 комфорт 1012.3 1009.8 +20.7
06 19.07 С 3 10 км 10/6 600 м
[Cb cap Ac As]
+23.0 +17.2 70 +28 +29 душно 1012.7 1010.2
09 19.07 С 3 10 км 9/4 600 м
[Cb cap Ac As]
+24.3 +17.4 65 +28 +32 душно 1013.2 1010.8
12 19.07 С 3 10 км 3/0
[Ac As]
+28.8 +15.1 43 +31 +40 жарко 1013.4 1011.0
15 19.07 СВ 1 10 км 3/1 600 м
[Cu med, cong Ac As Ci fib]
+28.6 +15.6 45 +31 +34 жарко 1013.9 1011.5 +30.3
18 19.07 С 1 10 км 3/0
[Ac As]
+23.1 +14.0 57 +27 +27 душно 1015.5 1013.1
21 19.07 СВ 1 10 км ясно +20.7 +13.8 65 +24 +24 комфорт 1016.2 1013.7
00 20.07 С 3 10 км 3/0
[Ac und]
+20.3 +12.3 60 +23 +23 комфорт 1016.0 1013.5
03 20.07 С 3 10 км 1/0
[Ac As]
+19.9 +13.7 67 +22 +23 комфорт 1016.6 1014.1 +19.8
06 20.07 СВ 2 10 км ясно +25.0 +15.0 54 +28 +38 жарко 1016.5 1014.0
09 20.07 СВ 2 10 км ясно +29.6 +15.6 43 +32 +51 опасность
солнечного
удара
1015.8 1013.4
12 20.07 СВ 2
{11}
10 км ясно +31.3 +16.6 41 +34 +47 душно 1015.1 1012.7
15 20.07 С 3 10 км ясно +30.5 +16.4 43 +34 +36 очень
душно
1014.1 1011.7 +31.7
18 20.07 СВ 1 10 км ясно +26.3 +16.6 55 +30 +30 душно 1013.7 1011.3
21 20.07 штиль 0 10 км ясно +23.2 +19.7 81 +30 +30 очень
душно
1014.3 1011.9
00 21.07 С 2 н/о н/о +22.1 +18.4 80 +27 +27 душно 1013.8 1011.4
03 21.07 С 1 10 км 3/3 600 м
[Cb cap]
+21.3 +16.4 74 +25 +25 комфорт 1013.7 1011.3 +21.1
06 21.07 С 1 10 км слаб. ливневой дождь 10/10 600 м
[Cb cap]
+22.7 +18.7 78 +28 +28 душно 1013.9 1011.5
09 21.07 С 2 10 км в посл. час ливневой дождь 10/10 600 м
[Cb cap]
+22.3 +19.5 84 +28 +28 душно 1013.5 1011.0
12 21.07 С 3 10 км {ливн. осадки} 10/10 600 м
[Cb cap]
+22.7 +19.0 80 +29 +29 очень
душно
1013.6 1011.2
15 21.07 СВ 2 10 км {ливн. осадки} 10/10 600 м
[Cb cap]
+21.7 +19.3 86 +27 +27 душно 1013.6 1011.2 +23.5 4
18 21.07 С 3 10 км в посл. час ливневой дождь 10/10 600 м
[Cb cap]
+20.2 +18.0 87 +24 +24 комфорт 1014.9 1012.4
21 21.07 СВ 3 н/о н/о +19.9 +16.6 81 +23 +23 комфорт 1014.7 1012.2
00 22.07 СВ 4 10 км {ливн. осадки} 8/8 600 м
[Cb cap]
+20.4 +15.9 75 +23 +23 комфорт 1013.0 1010.5
03 22.07 С 5
{11}
10 км 1/1 1000 м
[Cu hum]
+19.9 +15.9 78 +22 +22 комфорт 1013.9 1011.4 +19.6 1
06 22.07 СВ 2
{11}
10 км ясно +22.9 +16.3 66 +27 +37 душно 1013.8 1011.4
09 22.07 СВ 4-12
{14}
10 км ясно +25.8 +16.9 58 +30 +42 душно 1012.9 1010.5
12 22.07 СВ 4-11
{13}
10 км ясно +27.9 +16.3 49 +31 +40 душно 1013.2 1010.8
15 22.07 СВ 3
{13}
10 км 1/1 1000 м
[Cu med, cong]
+27.3 +15.9 50 +31 +32 душно 1012.7 1010.3 +28.8
18 22.07 С 3 10 км ясно +24.1 +14.6 55 +27 +27 жарко 1012.6 1010.2
21 22.07 С 3 10 км ясно +22.9 +13.3 55 +26 +26 жарко 1012.2 1009.8
00 23.07 С 4 10 км ясно +21.1 +15.9 72 +24 +24 комфорт 1011.0 1008.6
03 23.07 С 4 10 км ясно +20.4 +15.7 74 +23 +24 комфорт 1010.6 1008.2 +20.4

 

Местоположение метеостанции Джубга (Краснодарский край, Россия): широта 44.33 долгота 38.72 высота над уровнем моря 23 м.

В архиве по умолчанию представлена погода в Джубге за последнюю неделю. Архивные данные за месяц целиком и за предыдущие месяцы, начиная с января 2011 года, Вы можете получить, выбрав интересующий диапазон дат из раскрывающегося списка и нажав кнопку "Ввод!".


*Определитесь, кто Вы:
робот инопланетянин человек

Внимание! Время в таблицах - всемирное. Для получения местного времени необходимо прибавить поправку, которая равна 3 ч.

Смотрите также архив погоды в соседних городах и на ближайших метеорологических станциях:

Погода в Туапсе (Краснодарский край, Россия) (38 км)
Погода в Горном (Краснодарский край, Россия) (44 км)
Погода в Горячем Ключе (Краснодарский край, Россия) (45 км)
Погода в Магри (Краснодарский край, Россия) (49 км)
Погода в Геленджике (Краснодарский край, Россия) (57 км)
Погода в Лазаревском (Краснодарский край, Россия) (68 км)
Погода в Новороссийске (Краснодарский край, Россия) (81 км)
Погода в Краснодаре (Краснодарский край, Россия) (84 км)
Погода в Кичмае (Краснодарский край, Россия) (84 км)
Погода в Крымске (Краснодарский край, Россия) (87 км)

Пояснения к столбцам:

Ветер - указаны скорость ветра в м/с - средняя за 10 мин, порывы в срок и между сроками (в фигурных скобках) и направление, откуда дует ветер: С - северный, СВ - северо-восточный, В - восточный, ЮВ - юго-восточный, Ю - южный, ЮЗ - юго-западный, З - западный, СЗ - северо-западный.
Видимость - горизонтальная дальность видимости в метрах или километрах. При видимости от 1 до 10 км при отсутствии осадков обычно наблюдается дымка, при ухудшении видимости до 1 км и менее - туман. В сухую погоду видимость может ухудшаться дымом, пылью или мглою.
Явления - указаны атмосферные явления, наблюдавшиеся в срок или в последний час перед сроком; фигурными скобками обозначены явления, наблюдавшиеся между сроками (за 1-3 часа до срока); квадратными скобками обозначены град или гололедные отложения с указанием их диаметра в мм.
Облачность - указаны через наклонную черту общая и нижняя облачность в баллах и высота нижней границы облаков в метрах; квадратными скобками обозначены формы облаков: Ci - перистые, Cs - перисто-слоистые, Cc - перисто-кучевые, Ac - высококучевые, As - высокослоистые, Sc - слоисто-кучевые, Ns - слоисто-дождевые, Cu - кучевые, Cb - кучево-дождевые. Подробнее классификацию облаков см. в Атласе облаков (PDF).
T - Температура воздуха - температура, измеренная на высоте 2 м над землей.
Td - Температура точки росы - температура, при понижении до которой содержащийся в воздухе водяной пар достигнет насыщения.
f - Относительная влажность воздуха - влажноcть воздуха, измеренная на высоте 2 м над землей.
Te - Эффективная температура - температура, которую ощущает одетый по сезону человек в тени. Характеристика душности погоды. При расчете учитывается влияние влажности воздуха и скорости ветра на теплоощущения человека.
Tes - Эффективная температура на солнце - температура, которую ощущает человек, с поправкой на солнечный нагрев. Характеристика знойности погоды. Зависит от высоты солнца над горизонтом, облачности и скорости ветра. Ночью, в пасмурную погоду, а также при ветре 12 м/с и более поправка равна нулю.
P - Атмосферное давление - приведенное к уровню моря атмосферное давление.
Po - Атмосферное давление - измеренное на уровне метеостанции атмосферное давление.
Tmin - Минимальная температура - минимум температуры воздуха на высоте 2 м над землей.
Tmax - Максимальная температура - максимум температуры воздуха на высоте 2 м над землей.
R - Количество осадков - Количество выпавших осадков за период времени, мм. При наведении курсора мыши на число - период времени, за который выпало указанное количество осадков.
R24 - Количество осадков - Количество выпавших осадков за 24 часа, мм.
S - Снежный покров - Высота снежного покрова, см. При наведении курсора мыши на число - состояние снежного покрова и степень покрытия местности в баллах.